This is the latest recevied weather packets stored in our database for station/object K5EAA-13. If no packets are shown the sender has not sent any weather packets the latest 10 day(s).
| Time | Temp. | Humidity | Pressure | Rain* | Wind** | Luminosity | Snow |
|---|---|---|---|---|---|---|---|
| 1787668208 | 28.89° C | 59% | 1016.4 hPa | 0 mm | - | 142 W/m² | - |
| 1787667902 | 28.89° C | 58% | 1016.4 hPa | 0 mm | - | 133 W/m² | - |
| 1787667597 | 28.89° C | 59% | 1016.7 hPa | 0 mm | - | 119 W/m² | - |
| 1787667293 | 29.44° C | 59% | 1016.9 hPa | 0 mm | - | 106 W/m² | - |
| 1787666993 | 29.44° C | 59% | 1016.9 hPa | 0 mm | - | 104 W/m² | - |
| 1787666689 | 30° C | 58% | 1017 hPa | 0 mm | - | 124 W/m² | - |
| 1787666388 | 30° C | 59% | 1017.2 hPa | 0 mm | - | 179 W/m² | - |
| 1787666084 | 30° C | 59% | 1017.2 hPa | 0 mm | - | 162 W/m² | - |
| 1787665784 | 29.44° C | 60% | 1017.3 hPa | 0 mm | - | 254 W/m² | - |
| 1787665485 | 28.33° C | 64% | 1017.3 hPa | 0 mm | - | 211 W/m² | - |
| 1787665179 | 28.33° C | 64% | 1017.3 hPa | 0 mm | - | 118 W/m² | - |
| 1787664877 | 28.33° C | 65% | 1017.3 hPa | 0 mm | - | 95 W/m² | - |
| 1787664577 | 27.78° C | 65% | 1017.4 hPa | 0 mm | - | 73 W/m² | - |
| 1787664277 | 27.78° C | 65% | 1017.2 hPa | 0 mm | - | 54 W/m² | - |
| 1787663976 | 27.78° C | 66% | 1017.3 hPa | 0 mm | - | 40 W/m² | - |
| 1787663671 | 27.78° C | 67% | 1017.3 hPa | 0 mm | - | 30 W/m² | - |
| 1787663367 | 27.78° C | 66% | 1016.9 hPa | 0 mm | - | 26 W/m² | - |
| 1787663063 | 27.78° C | 67% | 1017 hPa | 0 mm | - | 23 W/m² | - |
| 1787662758 | 27.78° C | 66% | 1017.1 hPa | 0 mm | - | 20 W/m² | - |
| 1787662453 | 27.78° C | 65% | 1017.4 hPa | 0 mm | - | 16 W/m² | - |
| 1787662148 | 27.78° C | 64% | 1017.4 hPa | 0 mm | - | 14 W/m² | - |
| 1787661844 | 27.78° C | 63% | 1017.2 hPa | 0 mm | - | 13 W/m² | - |
| 1787661543 | 27.78° C | 62% | 1017.3 hPa | 0 mm | - | 13 W/m² | - |
| 1787661242 | 28.33° C | 61% | 1017.2 hPa | 0 mm | - | 12 W/m² | - |
| 1787660941 | 28.33° C | 59% | 1017.1 hPa | 0 mm | - | 11 W/m² | - |
* Rain latest hour (hover to see other rain measurements)
** Current wind speed in m/s (hover to see current wind gust speed)